527  
NZUS99 KIND 161209  
HRRIND  
 
WEATHER ROUNDUP FOR INDIANA AND SURROUNDING STATES  
NATIONAL WEATHER SERVICE INDIANAPOLIS IN  
800 AM EDT SAT OCT 16 2021  
   
..INDIANA
 
 
 
CITY SKY/WX TMP DP RH WIND PRES REMARKS  
INDIANAPOLIS CLEAR 46 41 82 W13 29.99R  
6HR MIN TEMP: 46; 6HR MAX TEMP: 53; 6HR PCP: 0.05;  
 
EAGLE CREEK CLEAR 48 41 76 NW13 29.98R  
6HR MIN TEMP: 48; 6HR MAX TEMP: 54; 6HR PCP: 0.06;  
 
ANDERSON CLEAR 46 40 80 W7 29.96R  
6HR MIN TEMP: 47; 6HR MAX TEMP: 54; 6HR PCP: 0.05;  
 
MOUNT COMFORT CLEAR 45 45 100 W13 29.98R  
SHELBYVILLE CLEAR 50 44 80 W9 29.97R  
6HR MIN TEMP: 50; 6HR MAX TEMP: 57; 6HR PCP: 0.05;  
 

 
 
CITY SKY/WX TMP DP RH WIND PRES REMARKS  
LAFAYETTE CLEAR 43 40 89 W8 30.00R  
6HR MIN TEMP: 43; 6HR MAX TEMP: 51;  
 
KOKOMO CLEAR 45 44 97 W12 29.96R  
6HR MIN TEMP: 45; 6HR MAX TEMP: 52;  
 
FRANKFORT PTCLDY 45 41 87 W13 29.98R  
CRAWFORDSVILLE CLEAR 41 36 80 CALM 30.02R  
6HR MIN TEMP: 41; 6HR MAX TEMP: 49;  
 
MUNCIE CLEAR 50 44 80 W9 29.94R  
6HR MIN TEMP: 50; 6HR MAX TEMP: 56; 6HR PCP: 0.05;  
 
GREENCASTLE FAIR 45 40 83 W8 30.02R  
TERRE HAUTE CLEAR 46 41 82 W6 30.05R  
6HR MIN TEMP: 45; 6HR MAX TEMP: 52; 6HR PCP: 0.08;  
 
BLOOMINGTON CLEAR 46 41 82 W8 30.02R  
6HR MIN TEMP: 46; 6HR MAX TEMP: 53; 6HR PCP: 0.01;  
 
COLUMBUS CLEAR 46 43 87 W8 29.99R  

 
 
CITY SKY/WX TMP DP RH WIND PRES REMARKS  
GARY CLEAR 45 37 76 W12 29.96S  
VALPARAISO CLEAR 44 38 79 W10 29.97R  
6HR MIN TEMP: 44; 6HR MAX TEMP: 53;  
 
LA PORTE CLEAR 46 42 84 W7 29.95R  
6HR MIN TEMP: 46; 6HR MAX TEMP: 52;  
 
MICHIGAN CITY MOCLDY 50 41 71 W12 29.95R  
SOUTH BEND PTCLDY 49 42 77 W12 29.92R  
6HR MIN TEMP: 48; 6HR MAX TEMP: 53; 6HR PCP: TRACE;  
 
ELKHART CLEAR 45 45 100 W7 29.90  
GOSHEN CLEAR N/A N/A N/A W8 29.90R  
6HR PCP: 0.01;  
 
ANGOLA MOCLDY 50 48 93 W7 29.87R  
KENDALLVILLE CLOUDY 49 48 96 W6 29.88R  
AUBURN PTCLDY 48 46 93 W7 29.89R  
RENSSELAER CLEAR 43 37 81 W6 29.99R  
KNOX CLEAR 43 41 93 W10 29.95R  
PLYMOUTH CLEAR 45 41 87 W9 29.93R  
ROCHESTER CLEAR 46 43 87 W8 29.95R  
WARSAW CLEAR 45 43 93 W9 29.92R  
FORT WAYNE MOCLDY 49 46 90 W12 29.90R  
6HR MIN TEMP: 49; 6HR MAX TEMP: 53; 6HR PCP: 0.07;  
 
MONTICELLO CLEAR 43 40 88 W7 29.98R  
6HR MIN TEMP: 43; 6HR MAX TEMP: 51; 6HR PCP: 0.01;  
 
LOGANSPORT CLEAR 45 39 81 W9 29.98R  
PERU/GRISSOM CLEAR 45 40 84 W12 29.94R  
6HR MIN TEMP: 45; 6HR MAX TEMP: 52; 6HR PCP: 0.01;  
 
MARION CLEAR N/A N/A N/A W13 29.95R  
PORTLAND FAIR 50 45 81 W9G17 29.91R  
RICHMOND FAIR 46 46 100 W12 29.94R  
BATESVILLE PTCLDY 48 48 100 VRB5G12 29.96R  
WASHINGTON CLEAR 47 42 84 W8 30.06R  
6HR MIN TEMP: 47; 6HR MAX TEMP: 52; 6HR PCP: 0.01;  
 
FRENCH LICK CLEAR 45 41 87 W5 30.05R  
MADISON MOCLDY 48 48 100 W7 30.01R  
HUNTINGBURG CLEAR 47 44 90 W8 30.08R  
6HR MIN TEMP: 47; 6HR MAX TEMP: 54;  
 
JEFFERSONVILLE FAIR 50 46 87 NW5 30.02R  
EVANSVILLE CLEAR 48 43 82 W7 30.10R  
6HR MIN TEMP: 48; 6HR MAX TEMP: 53;  
 

 
   
..ILLINOIS
 
 
 
CITY SKY/WX TMP DP RH WIND PRES REMARKS  
CHICAGO CLEAR 44 36 73 W9 29.97R  
MOLINE CLEAR 42 35 76 W8 30.06R  
ROCKFORD PTCLDY 42 35 76 W3 30.02R  
KANKAKEE CLEAR 43 39 87 W9 30.02R  
PEORIA CLEAR 43 36 76 W6 30.07R  
BLOOMINGTON CLEAR 41 38 89 W7 30.05S  
CHAMPAIGN CLEAR 41 39 93 W6 30.05R  
RANTOUL CLEAR 42 39 91 W7 30.04R  
DANVILLE CLEAR 44 38 82 W9 30.04R  
QUINCY CLEAR 42 36 79 W7 30.12R  
SPRINGFIELD CLEAR 40 38 93 W7 30.08R WCI 35  
DECATUR CLEAR 44 42 93 W7 30.07R  
MATTOON CLEAR 45 39 79 W6 30.06R  
PARIS CLEAR 43 42 98 W7 30.06R  
EFFINGHAM CLEAR 43 41 94 W5 30.10R  
ROBINSON CLEAR 44 42 92 W6 30.08R  
OLNEY CLEAR 46 45 97 W5 30.10R  
MOUNT VERNON CLEAR 45 50 100 W3 30.12R  
FAIRFIELD CLEAR 46 44 93 CALM 30.10R  
MOUNT CARMEL CLEAR 47 45 91 NW5 30.09R  
CARMI CLEAR 46 45 93 MISG 30.10S  

 
   
..KENTUCKY
 
 
 
CITY SKY/WX TMP DP RH WIND PRES REMARKS  
LOUISVILLE PTCLDY 52 46 80 W13 30.01R  
PADUCAH CLEAR 47 43 86 W3 30.14R  
OWENSBORO CLEAR 48 44 86 W8 30.10R  
FORT KNOX CLEAR 48 48 100 W8 30.03R  
LEXINGTON CLOUDY 52 46 80 NW10G20 29.97R  
BOWLING GREEN CLEAR 51 47 86 W5 30.08R  
JACKSON RAIN 56 53 90 NW10G28 29.89R FOG  

 
   
..OHIO
 
 
 
CITY SKY/WX TMP DP RH WIND PRES REMARKS  
CINCINNATI CLOUDY 51 45 79 W13 29.94R  
DAYTON CLOUDY 53 46 77 W13 29.92R  
TOLEDO CLOUDY 51 46 83 W7 29.83R  
DEFIANCE CLOUDY 54 49 83 VRB5 29.86R  
FINDLAY CLOUDY 52 46 80 NW7 29.85R  
LIMA LGT RAIN 52 50 93 W12 29.87R  
WRIGHT-PAT AFB CLOUDY 53 44 71 W10 29.90R  
COLUMBUS CLOUDY 54 50 86 NW16G25 29.84R  
CLEVELAND CLOUDY 57 53 86 NW8 29.73R  

 
   
..MICHIGAN
 
 
 
CITY SKY/WX TMP DP RH WIND PRES REMARKS  
DETROIT CLOUDY 50 46 86 NW9 29.79R  
GRAND RAPIDS PTCLDY 47 44 90 W7 29.85R  
LANSING CLEAR 49 45 86 W9 29.82S  
KALAMAZOO CLEAR 49 44 83 W8 29.88R  
BATTLE CREEK CLEAR 49 46 90 W9 29.86R  
MARSHALL CLEAR 48 46 93 W5 29.85R  
JACKSON PTCLDY 51 46 83 W7 29.83R  
BENTON HARBOR PTCLDY 53 39 59 NW16G29 29.90R  
STURGIS PTCLDY 49 48 98 W5 29.87R  
COLDWATER PTCLDY 49 48 94 W6 29.86R  
HILLSDALE CLOUDY 50 49 94 W9 29.84R  

 
   
..OTHER LOCATIONS
 
 
 
CITY SKY/WX TMP DP RH WIND PRES REMARKS  
SAINT LOUIS MO CLEAR 46 39 76 W8 30.14R  
CAPE GIRARDEAU CLEAR 44 42 93 W5 30.16R  
MILWAUKEE WI CLEAR 46 37 71 NW10 29.93R  
NASHVILLE TN PTCLDY 53 44 71 NW13G18 30.11R  

 
 
 
 
CLICK HERE TO GO TO PREVIOUS BULLETINS.

The Nexlab IN Page Main Text Page